www.pogodaiklimat.ru

Погода и климат >> Архив погоды >> Беларусь >> Ошмяны


ПОГОДА в Ошмянах

  • Прогноз погоды в Ошмянах
  • Монитор погоды в Ошмянах
  • Климат города

АРХИВ ПОГОДЫ в Ошмянах

Время (UTC), дата Ветер
(напр.,м/с)
 
Видим.   Явления Облачность Т
(С)
Тd
(С)
f
(%)
Тe
(С)
Тes
(С)
Комфортность P
(гПа)
Po
(гПа)
Тmin
(С)
Tmax
(С)
R
(мм)
R24
(мм)
S
(см)
21 18.06 штиль 0 14 км {ливн. осадки} 9/5 600 м
[Cb cap Ac trans]
+18.2 +16.2 88 +19 +19 1016.5 992.1
00 19.06 СЗ 1 14 км {ливн. осадки} 9/9 600 м
[Sc]
+17.0 +15.1 89 +18 +18 1017.3 992.7
03 19.06 штиль 0 20 км 8/4 600 м
[Sc Ac lent]
+15.6 +13.1 85 +15 +16 1017.7 992.9 +15.3
06 19.06 штиль 0 20 км 8/0
[Ac trans Cs]
+20.1 +12.7 62 +22 +28 комфорт 1017.3 992.9 +15.3 0.0
09 19.06 З 2 20 км 9/1 1000 м
[Cu hum Ac trans Cs]
+23.1 +12.0 50 +26 +33 жарко 1016.2 992.2
12 19.06 З 5-11
{12}
20 км 9/9 600 м
[Cu Sc]
+24.6 +12.6 47 +26 +27 жарко 1014.7 990.8
15 19.06 З 6-11
{12}
20 км 9/1 600 м
[Cu hum Ac As]
+23.3 +12.5 51 +26 +27 жарко 1014.5 990.5
18 19.06 З 5
{12}
20 км 9/0
[Ac cast Ci fib]
+20.3 +13.5 65 +22 +22 комфорт 1015.2 991.0 +26.2
21 19.06 З 5
{11}
14 км 5/3 600 м
[Sc Ac trans]
+17.1 +12.0 72 +16 +16 1016.7 992.2
00 20.06 З 2 14 км ясно +13.1 +11.4 89 +12 +12 1017.7 992.7
03 20.06 ЮЗ 2 10 км ясно +12.8 +11.4 91 +12 +12 1017.9 992.9 +11.8
06 20.06 З 6-10
{10}
20 км 4/4 600 м
[Cu hum]
+17.0 +12.1 73 +16 +18 1018.0 993.4 +11.8
09 20.06 З 6-11
{12}
20 км 3/3 600 м
[Cu hum]
+21.7 +10.4 49 +23 +28 комфорт 1017.7 993.4
12 20.06 З 7-11
{13}
20 км 1/1 600 м
[Cu hum]
+23.7 +10.7 44 +25 +29 комфорт 1017.0 992.9
15 20.06 З 6-11
{13}
20 км 1/1 600 м
[Cu hum]
+23.5 +9.3 40 +24 +26 комфорт 1016.4 992.4
18 20.06 З 6-11
{11}
20 км ясно +21.3 +12.3 56 +23 +24 комфорт 1016.2 992.0 +24.2
21 20.06 З 3
{11}
14 км ясно +16.3 +10.9 70 +16 +16 1017.3 992.6
00 21.06 штиль 0 14 км ясно +14.2 +10.7 79 +14 +14 1016.4 991.7
03 21.06 ЮЗ 3 20 км 3/0
[Ac trans]
+13.5 +10.0 79 +12 +13 1015.9 991.1 +11.2
06 21.06 Ю 3 20 км 9/6 600 м
[Sc Ac trans]
+18.8 +12.7 68 +20 +21 1014.1 989.8 +11.2
09 21.06 ЮЗ 2
{11}
20 км 5/5 600 м
[Cu Sc]
+25.1 +14.6 52 +28 +35 жарко 1011.8 988.0
12 21.06 ЮЗ 6-11
{13}
20 км 8/8 600 м
[Cu Sc]
+27.1 +13.2 42 +29 +30 жарко 1008.8 985.2
15 21.06 Ю 7-11
{12}
20 км 9/9 600 м
[Cu Sc]
+28.4 +14.8 43 +31 +31 душно 1005.8 982.4
18 21.06 Ю 6
{11}
20 км 3/0
[Ac lent]
+26.5 +15.0 49 +29 +29 жарко 1003.6 980.1 +29.0
21 21.06 Ю 7-11
{11}
14 км 8/4 600 м
[Cb cap Ac trans]
+23.5 +15.1 59 +26 +26 жарко 1001.8 978.0
00 22.06 З 6-11
{13}
8000 м слабый ливневой дождь, в посл. час гроза 10/6 600 м
[Cb cap Ac As]
+15.7 +15.1 96 +14 +14 1003.9 979.6
03 22.06 З 4
{11}
20 км {ливн. осадки} 10/8 300 м
[Cb cap Ac As]
+12.1 +10.7 91 +10 +10 1007.0 982.3 +12.0
06 22.06 З 5 20 км {ливн. осадки} 9/6 600 м
[Cb cap Ac trans]
+12.3 +10.2 87 +10 +11 1008.3 983.5 +11.4 7
09 22.06 З 5 20 км 9/6 600 м
[Cu med, cong Ac trans]
+15.1 +10.2 73 +14 +16 1009.2 984.6
12 22.06 ЮЗ 6-11
{12}
20 км 9/4 600 м
[Cu med, cong Ac trans]
+17.7 +8.9 56 +17 +19 1010.3 985.9
15 22.06 З 5
{11}
20 км 8/3 600 м
[Cu med, cong Ac trans Ci fib]
+18.6 +8.4 51 +19 +20 1010.9 986.6
18 22.06 З 5
{11}
20 км 8/3 600 м
[Sc Ac trans Ci fib]
+17.0 +7.7 54 +16 +16 1012.5 987.9 +19.2
21 22.06 ЮЗ 2 14 км 9/0
[Ac trans Ci fib]
+11.6 +7.7 77 +11 +11 1014.2 989.2
00 23.06 штиль 0 14 км 8/0
[Ac lent Ci fib]
+9.9 +7.4 84 +9 +9 1014.4 989.2
03 23.06 штиль 0 20 км 9/0
[Ac As]
+8.9 +7.3 90 +8 +8 1014.7 989.4 +8.0
06 23.06 ЮЗ 1 20 км 9/1 600 м
[Cb cap Ac As]
+12.6 +9.3 80 +13 +15 1014.6 989.7 +8.0
09 23.06 ЮЗ 1 10 км 10 баллов +15.4 +9.3 67 +16 +16 1014.0 989.0
12 23.06 З 2 20 км 9/9 600 м
[Cb cap]
+16.6 +9.3 62 +17 +18 1012.6 988.0
15 23.06 З 3 20 км в посл. час ливневой дождь 10/3 600 м
[Cb cap Ac As]
+13.6 +9.9 78 +12 +13 1011.9 987.2
18 23.06 штиль 0 9000 м слабый ливневой дождь 10/8 600 м
[Cb cap Ac As]
+13.6 +9.3 75 +13 +13 1011.3 986.6 +17.4 0.0
21 23.06 СЗ 1 9000 м слабый ливневой дождь 10/8 600 м
[Cb cap Ac As]
+11.3 +10.3 94 +11 +11 1011.1 986.2
00 24.06 З 2 10 км {ливн. осадки} 10/8 600 м
[Cb cap Ac As]
+10.5 +9.9 96 +9 +9 1009.7 984.7
03 24.06 ЮЗ 2 8000 м слабый ливневой дождь 10/8 600 м
[Cb cap Ac As]
+10.3 +9.7 96 +9 +9 1009.2 984.2 +9.6
06 24.06 З 3 8000 м слабый ливневой дождь 10/8 600 м
[Cb cap Ac As]
+10.7 +9.9 95 +9 +9 1008.9 983.9 +9.6 4
09 24.06 З 3 9000 м слабый ливневой дождь 9/8 600 м
[Cb cap Ac As]
+12.5 +10.7 89 +11 +13 1009.2 984.4
12 24.06 З 3
{11}
9000 м слабый ливневой дождь 10/8 600 м
[Cb cap Ac As]
+12.2 +11.2 94 +11 +11 1010.4 985.6
15 24.06 З 3 20 км {ливн. осадки} 9/6 600 м
[Cb cap Ac trans]
+12.7 +9.3 80 +11 +12 1011.1 986.3
18 24.06 ЮЗ 1 20 км {ливн. осадки} 8/4 600 м
[Cb cap Ac trans Ci fib]
+11.9 +10.4 91 +12 +12 1011.8 986.9 +14.4 3
21 24.06 штиль 0 14 км 8/3 600 м
[Cb cap Ac trans]
+10.5 +9.5 94 +10 +10 1012.9 987.8
00 25.06 штиль 0 14 км 9/0
[Ac trans]
+9.9 +9.0 94 +9 +9 1012.8 987.6
03 25.06 Ю 2 10 км 10 баллов +10.1 +9.3 95 +8 +8 1013.0 987.6 +9.3
06 25.06 Ю 3 8000 м ливневой дождь 10 баллов +11.7 +10.4 92 +10 +10 1014.0 988.7 +9.3
09 25.06 Ю 4 10 км ливневой дождь 10 баллов +12.9 +10.6 86 +11 +11 1014.0 988.8
12 25.06 ЮЗ 4 10 км ливневой дождь 10 баллов +12.5 +10.2 86 +11 +11 1016.0 990.7
15 25.06 Ю 5
{11}
10 км ливневой дождь 10 баллов +13.7 +11.0 84 +12 +12 1016.0 990.8
18 25.06 Ю 4 10 км 10 баллов +13.1 +10.6 85 +11 +11 1017.0 991.7 +16.1 2

 

Местоположение метеостанции Ошмяны (Гродненская область, Беларусь): широта 54.43 долгота 25.93 высота над уровнем моря 211 м.

В архиве по умолчанию представлена погода в Ошмянах за последнюю неделю. Архивные данные за месяц целиком и за предыдущие месяцы, начиная с января 2011 года, Вы можете получить, выбрав интересующий диапазон дат из раскрывающегося списка и нажав кнопку "Ввод!".


*Определитесь, кто Вы:
робот инопланетянин человек

Внимание! Время в таблицах - всемирное. Для получения местного времени необходимо прибавить поправку, которая в Ошмянах равна 3 ч.

Смотрите также архив погоды в соседних городах и на ближайших метеорологических станциях:

Погода в Vilnius (Литва) (47 км)
Погода в Воложине (Минская область, Беларусь) (54 км)
Погода в Вилейке (Минская область, Беларусь) (69 км)
Погода в Лиде (Гродненская область, Беларусь) (71 км)
Погода в Лынтупах (Витебская область, Беларусь) (73 км)
Погода в Нарочи (Минская область, Беларусь) (75 км)
Погода в ?ven?ionys (Литва) (82 км)
Погода в Varena (Литва) (92 км)
Погода в Новогрудке (Гродненская область, Беларусь) (92 км)
Погода в Столбцах (Минская область, Беларусь) (118 км)

Пояснения к столбцам:

Ветер - указаны скорость ветра в м/с - средняя за 10 мин, порывы в срок и между сроками (в фигурных скобках) и направление, откуда дует ветер: С - северный, СВ - северо-восточный, В - восточный, ЮВ - юго-восточный, Ю - южный, ЮЗ - юго-западный, З - западный, СЗ - северо-западный.
Видимость - горизонтальная дальность видимости в метрах или километрах. При видимости от 1 до 10 км при отсутствии осадков обычно наблюдается дымка, при ухудшении видимости до 1 км и менее - туман. В сухую погоду видимость может ухудшаться дымом, пылью или мглою.
Явления - указаны атмосферные явления, наблюдавшиеся в срок или в последний час перед сроком; фигурными скобками обозначены явления, наблюдавшиеся между сроками (за 1-3 часа до срока); квадратными скобками обозначены град или гололедные отложения с указанием их диаметра в мм.
Облачность - указаны через наклонную черту общая и нижняя облачность в баллах и высота нижней границы облаков в метрах; квадратными скобками обозначены формы облаков: Ci - перистые, Cs - перисто-слоистые, Cc - перисто-кучевые, Ac - высококучевые, As - высокослоистые, Sc - слоисто-кучевые, Ns - слоисто-дождевые, Cu - кучевые, Cb - кучево-дождевые. Подробнее классификацию облаков см. в Атласе облаков (PDF).
T - Температура воздуха - температура, измеренная на высоте 2 м над землей.
Td - Температура точки росы - температура, при понижении до которой содержащийся в воздухе водяной пар достигнет насыщения.
f - Относительная влажность воздуха - влажноcть воздуха, измеренная на высоте 2 м над землей.
Te - Эффективная температура - температура, которую ощущает одетый по сезону человек в тени. Характеристика душности погоды. При расчете учитывается влияние влажности воздуха и скорости ветра на теплоощущения человека.
Tes - Эффективная температура на солнце - температура, которую ощущает человек, с поправкой на солнечный нагрев. Характеристика знойности погоды. Зависит от высоты солнца над горизонтом, облачности и скорости ветра. Ночью, в пасмурную погоду, а также при ветре 12 м/с и более поправка равна нулю.
P - Атмосферное давление - приведенное к уровню моря атмосферное давление.
Po - Атмосферное давление - измеренное на уровне метеостанции атмосферное давление.
Tmin - Минимальная температура - минимум температуры воздуха на высоте 2 м над землей.
Tmax - Максимальная температура - максимум температуры воздуха на высоте 2 м над землей.
R - Количество осадков - Количество выпавших осадков за период времени, мм. При наведении курсора мыши на число - период времени, за который выпало указанное количество осадков.
R24 - Количество осадков - Количество выпавших осадков за 24 часа, мм.
S - Снежный покров - Высота снежного покрова, см. При наведении курсора мыши на число - состояние снежного покрова и степень покрытия местности в баллах.